When you browse on this site, cookies collect data to enhance your experience and personalize the content and advertising you see.
Visit our Privacy Policy to learn more. By continuing to use the site, you agree to this use of cookies and data.
  • In Hungary
  • List of Countries
  • For 7 days
  • Water Temperature
  • Satellite Maps
  • Weather Map
  • News
  • Weather Widgets
  • user-avatar
    Login

    Hourly Weather Jos

    Today, 20 January, Sunday

    Time Temperature Precipitation Wind Pressure Humidity
    00:00 +22°C° 0 mm 1 mps 658 mmHg 24%
    01:00 +22°C° 0 mm 1 mps 658 mmHg 26%
    02:00 +21°C° 0 mm 1 mps 658 mmHg 28%
    03:00 +21°C° 0 mm 1 mps 658 mmHg 31%
    04:00 +21°C° 0 mm 1 mps 657 mmHg 33%
    05:00 +20°C° 0 mm 1 mps 658 mmHg 33%
    06:00 +20°C° 0 mm 1 mps 658 mmHg 33%
    07:00 +21°C° 0 mm 1 mps 658 mmHg 36%
    08:00 +23°C° 0 mm 2 mps 659 mmHg 32%
    09:00 +26°C° 0 mm 2 mps 660 mmHg 27%
    10:00 +29°C° 0 mm 2 mps 661 mmHg 22%
    11:00 +31°C° 0 mm 2 mps 661 mmHg 20%
    12:00 +32°C° 0 mm 2 mps 660 mmHg 17%
    13:00 +34°C° 0 mm 1 mps 660 mmHg 14%
    14:00 +34°C° 0 mm 1 mps 660 mmHg 14%
    15:00 +34°C° 0 mm 1 mps 659 mmHg 14%
    16:00 +34°C° 0 mm 1 mps 659 mmHg 14%
    17:00 +31°C° 0 mm 1 mps 658 mmHg 16%
    18:00 +29°C° 0 mm 1 mps 658 mmHg 18%
    19:00 +27°C° 0 mm 1 mps 658 mmHg 20%
    20:00 +26°C° 0 mm 1 mps 658 mmHg 21%
    21:00 +26°C° 0 mm 1 mps 658 mmHg 22%
    22:00 +25°C° 0 mm 1 mps 658 mmHg 23%
    23:00 +24°C° 0 mm 1 mps 658 mmHg 26%

    Tomorrow, 21 January, Monday

    Time Temperature Precipitation Wind Pressure Humidity
    00:00 +24°C° 0 mm 1 mps 658 mmHg 28%
    01:00 +23°C° 0 mm 1 mps 658 mmHg 30%
    02:00 +23°C° 0 mm 1 mps 658 mmHg 32%
    03:00 +23°C° 0 mm 1 mps 657 mmHg 34%
    04:00 +22°C° 0 mm 1 mps 657 mmHg 37%
    05:00 +22°C° 0 mm 1 mps 657 mmHg 39%
    06:00 +22°C° 0 mm 1 mps 657 mmHg 41%
    07:00 +21°C° 0 mm 2 mps 658 mmHg 43%
    08:00 +25°C° 0 mm 2 mps 659 mmHg 38%
    09:00 +27°C° 0 mm 2 mps 660 mmHg 32%
    10:00 +30°C° 0 mm 2 mps 661 mmHg 27%
    11:00 +31°C° 0 mm 2 mps 661 mmHg 25%
    12:00 +32°C° 0 mm 2 mps 661 mmHg 22%
    13:00 +33°C° 0 mm 1 mps 660 mmHg 19%
    14:00 +33°C° 0 mm 1 mps 660 mmHg 19%
    15:00 +34°C° 0 mm 2 mps 659 mmHg 18%
    16:00 +34°C° 0 mm 2 mps 658 mmHg 18%
    17:00 +31°C° 0 mm 2 mps 658 mmHg 19%
    18:00 +29°C° 0 mm 2 mps 658 mmHg 21%
    19:00 +27°C° 0 mm 1 mps 657 mmHg 23%
    20:00 +26°C° 0 mm 1 mps 657 mmHg 26%
    21:00 +26°C° 0 mm 2 mps 658 mmHg 29%
    22:00 +25°C° 0 mm 2 mps 658 mmHg 32%
    23:00 +24°C° 0 mm 1 mps 658 mmHg 37%

    Day after tomorrow, 22 January, Tuesday

    Time Temperature Precipitation Wind Pressure Humidity
    00:00 +24°C° 0 mm 1 mps 657 mmHg 41%
    01:00 +23°C° 0 mm 1 mps 657 mmHg 46%
    02:00 +23°C° 0 mm 1 mps 657 mmHg 47%
    03:00 +22°C° 0 mm 1 mps 656 mmHg 49%
    04:00 +22°C° 0 mm 1 mps 656 mmHg 51%
    05:00 +22°C° 0 mm 1 mps 656 mmHg 47%
    06:00 +22°C° 0 mm 1 mps 657 mmHg 44%
    07:00 +21°C° 0 mm 1 mps 657 mmHg 41%
    08:00 +24°C° 0 mm 2 mps 658 mmHg 33%
    09:00 +27°C° 0 mm 2 mps 659 mmHg 24%
    10:00 +30°C° 0 mm 2 mps 660 mmHg 16%
    11:00 +31°C° 0 mm 2 mps 660 mmHg 15%
    12:00 +33°C° 0 mm 1 mps 660 mmHg 14%
    13:00 +35°C° 0 mm 1 mps 660 mmHg 13%
    14:00 +35°C° 0 mm 1 mps 659 mmHg 13%
    15:00 +35°C° 0 mm 1 mps 658 mmHg 14%
    16:00 +34°C° 0 mm 1 mps 657 mmHg 15%
    17:00 +32°C° 0 mm 1 mps 657 mmHg 19%
    18:00 +30°C° 0 mm 1 mps 657 mmHg 23%
    19:00 +29°C° 0 mm 1 mps 657 mmHg 27%
    20:00 +28°C° 0 mm 1 mps 657 mmHg 31%
    21:00 +25°C° 0 mm 0 mps 657 mmHg 36%
    22:00 +24°C° 0 mm 0 mps 657 mmHg 40%
    23:00 +24°C° 0 mm 0 mps 657 mmHg 42%

    23 January, Wednesday

    Time Temperature Precipitation Wind Pressure Humidity
    00:00 +23°C° 0 mm 0 mps 657 mmHg 43%
    01:00 +25°C° 0 mm 1 mps 657 mmHg 45%
    02:00 +24°C° 0 mm 1 mps 656 mmHg 46%
    03:00 +24°C° 0 mm 1 mps 656 mmHg 48%
    04:00 +24°C° 0 mm 1 mps 656 mmHg 49%
    05:00 +23°C° 0 mm 1 mps 656 mmHg 50%
    06:00 +23°C° 0 mm 1 mps 656 mmHg 51%
    07:00 +22°C° 0 mm 1 mps 657 mmHg 51%
    08:00 +25°C° 0 mm 2 mps 658 mmHg 44%
    09:00 +27°C° 0 mm 2 mps 659 mmHg 38%
    10:00 +29°C° 0 mm 2 mps 660 mmHg 31%
    11:00 +31°C° 0 mm 2 mps 660 mmHg 28%
    12:00 +32°C° 0 mm 2 mps 659 mmHg 24%
    13:00 +34°C° 0 mm 1 mps 659 mmHg 21%
    14:00 +34°C° 0 mm 1 mps 658 mmHg 21%
    15:00 +35°C° 0 mm 2 mps 658 mmHg 21%
    16:00 +34°C° 0 mm 2 mps 657 mmHg 21%
    17:00 +32°C° 0 mm 1 mps 657 mmHg 22%
    18:00 +31°C° 0 mm 1 mps 657 mmHg 23%
    19:00 +29°C° 0 mm 1 mps 657 mmHg 24%
    20:00 +28°C° 0 mm 1 mps 657 mmHg 25%
    21:00 +27°C° 0 mm 1 mps 657 mmHg 26%
    22:00 +23°C° 0 mm 0 mps 657 mmHg 27%
    23:00 +23°C° 0 mm 0 mps 657 mmHg 29%

    24 January, Thursday

    Time Temperature Precipitation Wind Pressure Humidity
    00:00 +24°C° 0 mm 1 mps 656 mmHg 30%
    01:00 +24°C° 0 mm 1 mps 656 mmHg 32%
    02:00 +23°C° 0 mm 1 mps 656 mmHg 30%
    03:00 +22°C° 0 mm 1 mps 655 mmHg 28%
    04:00 +21°C° 0 mm 1 mps 655 mmHg 27%
    05:00 +21°C° 0 mm 1 mps 655 mmHg 25%
    06:00 +21°C° 0 mm 1 mps 656 mmHg 23%
    07:00 +18°C° 0 mm 0 mps 656 mmHg 21%
    08:00 +23°C° 0 mm 1 mps 657 mmHg 17%
    09:00 +26°C° 0 mm 1 mps 659 mmHg 13%
    10:00 +29°C° 0 mm 2 mps 660 mmHg 9%
    11:00 +30°C° 0 mm 2 mps 659 mmHg 9%
    12:00 +31°C° 0 mm 2 mps 659 mmHg 9%
    13:00 +33°C° 0 mm 1 mps 659 mmHg 9%
    14:00 +34°C° 0 mm 2 mps 658 mmHg 10%
    15:00 +34°C° 0 mm 2 mps 657 mmHg 10%
    16:00 +34°C° 0 mm 2 mps 657 mmHg 10%
    17:00 +31°C° 0 mm 1 mps 656 mmHg 11%
    18:00 +29°C° 0 mm 1 mps 656 mmHg 12%
    19:00 +27°C° 0 mm 1 mps 656 mmHg 13%
    20:00 +26°C° 0 mm 1 mps 656 mmHg 14%
    21:00 +25°C° 0 mm 1 mps 657 mmHg 15%
    22:00 +24°C° 0 mm 1 mps 657 mmHg 15%
    23:00 +24°C° 0 mm 1 mps 657 mmHg 16%

    25 January, Friday

    Time Temperature Precipitation Wind Pressure Humidity
    00:00 +23°C° 0 mm 1 mps 657 mmHg 16%
    01:00 +23°C° 0 mm 1 mps 657 mmHg 16%
    02:00 +22°C° 0 mm 1 mps 657 mmHg 16%
    03:00 +21°C° 0 mm 1 mps 656 mmHg 16%
    04:00 +19°C° 0 mm 0 mps 656 mmHg 16%
    05:00 +21°C° 0 mm 1 mps 656 mmHg 15%
    06:00 +20°C° 0 mm 1 mps 657 mmHg 13%
    07:00 +20°C° 0 mm 1 mps 657 mmHg 11%
    08:00 +23°C° 0 mm 2 mps 658 mmHg 11%
    09:00 +26°C° 0 mm 2 mps 659 mmHg 10%
    10:00 +28°C° 0 mm 3 mps 660 mmHg 9%
    11:00 +30°C° 0 mm 3 mps 660 mmHg 9%
    12:00 +31°C° 0 mm 3 mps 660 mmHg 8%
    13:00 +32°C° 0 mm 2 mps 659 mmHg 8%
    14:00 +32°C° 0 mm 2 mps 659 mmHg 8%
    15:00 +34°C° 0 mm 2 mps 658 mmHg 9%
    16:00 +34°C° 0 mm 2 mps 658 mmHg 9%
    17:00 +31°C° 0 mm 2 mps 658 mmHg 10%
    18:00 +29°C° 0 mm 2 mps 657 mmHg 11%
    19:00 +28°C° 0 mm 1 mps 657 mmHg 12%
    20:00 +27°C° 0 mm 1 mps 657 mmHg 12%
    21:00 +26°C° 0 mm 1 mps 658 mmHg 13%
    22:00 +24°C° 0 mm 0 mps 658 mmHg 13%
    23:00 +23°C° 0 mm 0 mps 658 mmHg 14%
    Show more